• In Belgien
  • Länderverzeichnis
  • Für 7 Tage
  • Wassertemperatur
  • Satellitenkarten
  • Wetterkarte
  • Widgets
  • user-avatar
    Anmelden

    Stündliche Wetter Sewan

    Heute, 19 Oktober, Freitag

    Zeit Temperatur Niederschläge Wind Luftdruck Luftfeuchtigkeit
    00:00 +10°C° 0 mm 1 m/S 643 mmHg 69%
    01:00 +10°C° 0 mm 1 m/S 643 mmHg 71%
    02:00 +10°C° 0 mm 1 m/S 643 mmHg 73%
    03:00 +9°C° 0 mm 1 m/S 643 mmHg 76%
    04:00 +9°C° 0 mm 1 m/S 643 mmHg 76%
    05:00 +9°C° 0 mm 1 m/S 643 mmHg 76%
    06:00 +9°C° 0 mm 1 m/S 643 mmHg 77%
    07:00 +11°C° 0 mm 1 m/S 644 mmHg 66%
    08:00 +13°C° 0 mm 1 m/S 645 mmHg 56%
    09:00 +15°C° 0 mm 1 m/S 646 mmHg 45%
    10:00 +16°C° 0 mm 1 m/S 646 mmHg 41%
    11:00 +18°C° 0 mm 1 m/S 646 mmHg 36%
    12:00 +20°C° 0 mm 1 m/S 646 mmHg 31%
    13:00 +20°C° 0 mm 1 m/S 645 mmHg 31%
    14:00 +20°C° 0 mm 1 m/S 645 mmHg 30%
    15:00 +20°C° 0 mm 1 m/S 645 mmHg 30%
    16:00 +18°C° 0 mm 1 m/S 644 mmHg 36%
    17:00 +15°C° 0 mm 1 m/S 644 mmHg 42%
    18:00 +13°C° 0 mm 1 m/S 643 mmHg 48%
    19:00 +13°C° 0 mm 1 m/S 643 mmHg 51%
    20:00 +12°C° 0 mm 1 m/S 643 mmHg 53%
    21:00 +12°C° 0 mm 1 m/S 643 mmHg 55%
    22:00 +11°C° 0 mm 1 m/S 643 mmHg 55%
    23:00 +11°C° 0 mm 1 m/S 643 mmHg 55%

    Morgen, 20 Oktober, Samstag

    Zeit Temperatur Niederschläge Wind Luftdruck Luftfeuchtigkeit
    00:00 +11°C° 0 mm 1 m/S 643 mmHg 55%
    01:00 +11°C° 0.1 mm 1 m/S 643 mmHg 54%
    02:00 +10°C° 0.1 mm 1 m/S 643 mmHg 53%
    03:00 +10°C° 0.1 mm 1 m/S 643 mmHg 52%
    04:00 +10°C° 0.1 mm 1 m/S 643 mmHg 52%
    05:00 +10°C° 0.1 mm 1 m/S 643 mmHg 52%
    06:00 +10°C° 0.1 mm 1 m/S 642 mmHg 51%
    07:00 +12°C° 0 mm 1 m/S 643 mmHg 49%
    08:00 +14°C° 0 mm 2 m/S 644 mmHg 46%
    09:00 +16°C° 0 mm 2 m/S 644 mmHg 44%
    10:00 +17°C° 0 mm 2 m/S 644 mmHg 42%
    11:00 +18°C° 0 mm 2 m/S 644 mmHg 39%
    12:00 +19°C° 0 mm 2 m/S 644 mmHg 37%
    13:00 +19°C° 0.1 mm 2 m/S 644 mmHg 37%
    14:00 +19°C° 0.1 mm 2 m/S 644 mmHg 37%
    15:00 +19°C° 0.1 mm 2 m/S 643 mmHg 37%
    16:00 +18°C° 0.1 mm 2 m/S 643 mmHg 42%
    17:00 +16°C° 0.1 mm 1 m/S 642 mmHg 47%
    18:00 +14°C° 0.1 mm 1 m/S 642 mmHg 51%
    19:00 +14°C° 0.1 mm 1 m/S 642 mmHg 52%
    20:00 +13°C° 0.1 mm 1 m/S 642 mmHg 52%
    21:00 +13°C° 0.1 mm 1 m/S 642 mmHg 52%
    22:00 +12°C° 0.1 mm 1 m/S 642 mmHg 53%
    23:00 +12°C° 0.1 mm 1 m/S 642 mmHg 54%

    übermorgen, 21 Oktober, Sonntag

    Zeit Temperatur Niederschläge Wind Luftdruck Luftfeuchtigkeit
    00:00 +12°C° 0.1 mm 1 m/S 641 mmHg 55%
    01:00 +12°C° 0.1 mm 1 m/S 641 mmHg 56%
    02:00 +11°C° 0.1 mm 1 m/S 641 mmHg 57%
    03:00 +11°C° 0.1 mm 1 m/S 641 mmHg 58%
    04:00 +11°C° 0.1 mm 1 m/S 641 mmHg 58%
    05:00 +11°C° 0.1 mm 1 m/S 641 mmHg 59%
    06:00 +11°C° 0.1 mm 1 m/S 641 mmHg 60%
    07:00 +13°C° 0.1 mm 1 m/S 641 mmHg 56%
    08:00 +14°C° 0.1 mm 2 m/S 642 mmHg 51%
    09:00 +16°C° 0.1 mm 2 m/S 642 mmHg 47%
    10:00 +17°C° 0.1 mm 2 m/S 642 mmHg 45%
    11:00 +18°C° 0.1 mm 2 m/S 642 mmHg 42%
    12:00 +18°C° 0.1 mm 3 m/S 642 mmHg 40%
    13:00 +18°C° 0.1 mm 2 m/S 642 mmHg 40%
    14:00 +18°C° 0.1 mm 2 m/S 642 mmHg 41%
    15:00 +18°C° 0.1 mm 2 m/S 641 mmHg 41%
    16:00 +17°C° 0.2 mm 2 m/S 641 mmHg 45%
    17:00 +15°C° 0.2 mm 2 m/S 641 mmHg 49%
    18:00 +14°C° 0.2 mm 1 m/S 640 mmHg 54%
    19:00 +14°C° 0.1 mm 1 m/S 640 mmHg 55%
    20:00 +13°C° 0.1 mm 1 m/S 640 mmHg 56%
    21:00 +13°C° 0.1 mm 1 m/S 640 mmHg 57%
    22:00 +12°C° 0 mm 1 m/S 640 mmHg 59%
    23:00 +12°C° 0 mm 1 m/S 640 mmHg 60%

    22 Oktober, Montag

    Zeit Temperatur Niederschläge Wind Luftdruck Luftfeuchtigkeit
    00:00 +12°C° 0 mm 1 m/S 640 mmHg 62%
    01:00 +12°C° 0 mm 1 m/S 640 mmHg 64%
    02:00 +11°C° 0 mm 1 m/S 640 mmHg 67%
    03:00 +11°C° 0 mm 1 m/S 640 mmHg 69%
    04:00 +11°C° 0.1 mm 1 m/S 640 mmHg 71%
    05:00 +11°C° 0.1 mm 1 m/S 640 mmHg 73%
    06:00 +9°C° 0.1 mm 2 m/S 640 mmHg 75%
    07:00 +12°C° 0.1 mm 2 m/S 640 mmHg 70%
    08:00 +13°C° 0.1 mm 2 m/S 641 mmHg 65%
    09:00 +15°C° 0.1 mm 2 m/S 642 mmHg 59%
    10:00 +16°C° 0 mm 3 m/S 642 mmHg 56%
    11:00 +17°C° 0 mm 3 m/S 642 mmHg 52%
    12:00 +18°C° 0 mm 3 m/S 642 mmHg 48%
    13:00 +18°C° 0 mm 3 m/S 642 mmHg 47%
    14:00 +18°C° 0 mm 3 m/S 642 mmHg 46%
    15:00 +18°C° 0 mm 3 m/S 641 mmHg 45%
    16:00 +16°C° 0 mm 3 m/S 641 mmHg 50%
    17:00 +15°C° 0 mm 2 m/S 641 mmHg 55%
    18:00 +13°C° 0 mm 2 m/S 640 mmHg 61%
    19:00 +13°C° 0 mm 2 m/S 641 mmHg 62%
    20:00 +13°C° 0 mm 2 m/S 641 mmHg 62%
    21:00 +12°C° 0 mm 2 m/S 641 mmHg 63%
    22:00 +12°C° 0 mm 2 m/S 641 mmHg 63%
    23:00 +12°C° 0 mm 2 m/S 641 mmHg 64%

    23 Oktober, Dienstag

    Zeit Temperatur Niederschläge Wind Luftdruck Luftfeuchtigkeit
    00:00 +10°C° 0 mm 2 m/S 641 mmHg 64%
    01:00 +10°C° 0 mm 2 m/S 641 mmHg 65%
    02:00 +10°C° 0 mm 2 m/S 641 mmHg 66%
    03:00 +9°C° 0 mm 2 m/S 641 mmHg 66%
    04:00 +9°C° 0 mm 2 m/S 641 mmHg 67%
    05:00 +9°C° 0 mm 2 m/S 641 mmHg 67%
    06:00 +9°C° 0 mm 2 m/S 641 mmHg 67%
    07:00 +10°C° 0 mm 2 m/S 642 mmHg 61%
    08:00 +12°C° 0 mm 3 m/S 642 mmHg 56%
    09:00 +14°C° 0 mm 3 m/S 643 mmHg 50%
    10:00 +16°C° 0 mm 3 m/S 643 mmHg 47%
    11:00 +17°C° 0 mm 4 m/S 643 mmHg 44%
    12:00 +18°C° 0 mm 4 m/S 643 mmHg 41%
    13:00 +18°C° 0.2 mm 4 m/S 643 mmHg 44%
    14:00 +17°C° 0.2 mm 3 m/S 642 mmHg 46%
    15:00 +17°C° 0.2 mm 3 m/S 642 mmHg 49%
    16:00 +14°C° 0.1 mm 3 m/S 642 mmHg 53%
    17:00 +14°C° 0.1 mm 2 m/S 642 mmHg 57%
    18:00 +13°C° 0.1 mm 2 m/S 642 mmHg 62%
    19:00 +13°C° 0.3 mm 2 m/S 642 mmHg 65%
    20:00 +12°C° 0.3 mm 2 m/S 642 mmHg 69%
    21:00 +12°C° 0.3 mm 2 m/S 642 mmHg 72%
    22:00 +10°C° 0.1 mm 2 m/S 642 mmHg 73%
    23:00 +10°C° 0.1 mm 2 m/S 641 mmHg 74%

    24 Oktober, Mittwoch

    Zeit Temperatur Niederschläge Wind Luftdruck Luftfeuchtigkeit
    00:00 +10°C° 0.1 mm 2 m/S 641 mmHg 75%
    01:00 +10°C° 0 mm 2 m/S 641 mmHg 76%
    02:00 +10°C° 0 mm 2 m/S 641 mmHg 77%
    03:00 +9°C° 0 mm 2 m/S 640 mmHg 77%
    04:00 +9°C° 0 mm 2 m/S 640 mmHg 78%
    05:00 +9°C° 0 mm 2 m/S 640 mmHg 78%
    06:00 +9°C° 0 mm 2 m/S 640 mmHg 78%
    07:00 +11°C° 0 mm 3 m/S 641 mmHg 71%
    08:00 +12°C° 0 mm 3 m/S 641 mmHg 65%
    09:00 +14°C° 0 mm 4 m/S 642 mmHg 58%
    10:00 +15°C° 0 mm 4 m/S 641 mmHg 54%
    11:00 +17°C° 0 mm 4 m/S 641 mmHg 51%
    12:00 +17°C° 0 mm 5 m/S 641 mmHg 48%
    13:00 +17°C° 0 mm 5 m/S 641 mmHg 47%
    14:00 +17°C° 0 mm 5 m/S 640 mmHg 47%
    15:00 +17°C° 0 mm 5 m/S 640 mmHg 46%
    16:00 +17°C° 0 mm 4 m/S 639 mmHg 51%
    17:00 +14°C° 0 mm 3 m/S 639 mmHg 57%
    18:00 +13°C° 0 mm 2 m/S 638 mmHg 62%
    19:00 +13°C° 0 mm 2 m/S 638 mmHg 62%
    20:00 +13°C° 0 mm 2 m/S 638 mmHg 62%
    21:00 +13°C° 0 mm 2 m/S 638 mmHg 63%
    22:00 +13°C° 0 mm 2 m/S 638 mmHg 64%
    23:00 +12°C° 0 mm 2 m/S 637 mmHg 66%
    Mehr zeigen